GW0175 Weather Reports


time (UTC)temp
F
wind
direction
speed
knots
gust
knots
rain 1hr
in
rain 24hr
in
rain mn
in
humidity
%
barometer
mb
20260831041121 86 166 2.6 5.2 0.00 0.00 0.00 33 1011.9
20260831040616 86 154 1.7 4.3 0.00 0.00 0.00 33 1012.1
20260831040115 86 154 1.7 3.5 0.00 0.00 0.00 32 1012.1
20260831035614 86 150 1.7 3.5 0.00 0.00 0.00 32 1012.0
20260831035109 86 158 1.7 3.5 0.00 0.00 0.00 32 1011.9
20260831034608 86 157 2.6 3.5 0.00 0.00 0.00 32 1011.5
20260831034103 86 155 2.6 4.3 0.00 0.00 0.00 32 1011.9
20260831033559 86 177 2.6 4.3 0.00 0.00 0.00 32 1011.8
20260831033054 86 166 1.7 3.5 0.00 0.00 0.00 31 1011.6
20260831032553 86 180 1.7 3.5 0.00 0.00 0.00 31 1011.6
20260831032049 87 157 0.9 2.6 0.00 0.00 0.00 30 1011.4
20260831031548 87 175 1.7 3.5 0.00 0.00 0.00 30 1011.3
20260831031048 88 192 0.0 3.5 0.00 0.00 0.00 30 1011.3
20260831030547 88 170 1.7 4.3 0.00 0.00 0.00 29 1011.3
20260831030046 89 159 1.7 4.3 0.00 0.00 0.00 28 1011.1
20260831025545 89 177 2.6 4.3 0.00 0.00 0.00 28 1011.1
20260831025040 88 139 1.7 4.3 0.00 0.00 0.00 29 1010.9
20260831024536 87 180 0.0 4.3 0.00 0.00 0.00 29 1010.8
20260831024035 88 169 1.7 3.5 0.00 0.00 0.00 30 1010.9
20260831023533 88 163 2.6 4.3 0.00 0.00 0.00 29 1010.8
20260831023027 89 152 2.6 4.3 0.00 0.00 0.00 28 1010.7
20260831022527 89 194 2.6 3.5 0.00 0.00 0.00 28 1010.6
20260831022022 89 157 1.7 1.7 0.00 0.00 0.00 28 1010.3
20260831021521 89 173 0.9 3.5 0.00 0.00 0.00 28 1010.3
20260831021017 90 180 0.0 3.5 0.00 0.00 0.00 28 1010.4
20260831020512 90 160 0.9 3.5 0.00 0.00 0.00 28 1010.3
20260831020007 91 162 1.7 2.6 0.00 0.00 0.00 27 1010.1
20260831015503 91 175 0.0 2.6 0.00 0.00 0.00 26 1010.1
20260831014958 92 172 2.6 2.6 0.00 0.00 0.00 26 1010.0
20260831014452 92 144 1.7 2.6 0.00 0.00 0.00 25 1010.2
20260831013948 92 120 0.9 4.3 0.00 0.00 0.00 25 1010.2
20260831013444 92 157 1.7 4.3 0.00 0.00 0.00 25 1010.1
20260831012937 93 177 1.7 3.5 0.00 0.00 0.00 25 1010.0
20260831012433 94 176 1.7 3.5 0.00 0.00 0.00 24 1010.0
20260831011933 94 146 1.7 3.5 0.00 0.00 0.00 24 1009.6
20260831011427 95 117 1.7 4.3 0.00 0.00 0.00 23 1009.9
20260831010923 96 90 0.0 1.7 0.00 0.00 0.00 23 1009.9
20260831010418 96 74 0.9 1.7 0.00 0.00 0.00 22 1009.9
20260831005913 97 131 0.0 4.3 0.00 0.00 0.00 22 1009.8
20260831005409 98 152 1.7 7.0 0.00 0.00 0.00 21 1009.8
20260831004903 98 173 7.8 7.8 0.00 0.00 0.00 21 1009.8
20260831004400 99 75 0.9 4.3 0.00 0.00 0.00 20 1009.7
20260831003855 99 96 0.0 4.3 0.00 0.00 0.00 20 1009.7
20260831003351 100 172 0.0 3.5 0.00 0.00 0.00 20 1010.0
20260831002850 99 135 4.3 8.7 0.00 0.00 0.00 19 1009.9
20260831002349 100 90 0.0 5.2 0.00 0.00 0.00 20 1009.5
20260831001845 100 69 0.0 9.6 0.00 0.00 0.00 20 1009.7
20260831001346 100 186 0.9 4.3 0.00 0.00 0.00 20 1009.6
20260831000843 101 120 0.0 3.5 0.00 0.00 0.00 20 1009.6
20260831000340 101 90 0.0 4.3 0.00 0.00 0.00 20 1009.8
20260830235836 101 95 1.7 5.2 0.00 0.00 0.00 19 1009.7
20260830235331 100 154 0.0 11.3 0.00 0.00 0.00 20 1009.7
20260830234827 100 155 2.6 7.0 0.00 0.00 0.00 20 1009.7
20260830234322 101 98 0.9 5.2 0.00 0.00 0.00 19 1009.7
20260830233818 101 140 0.0 2.6 0.00 0.00 0.00 20 1009.8
20260830233313 101 153 3.5 7.8 0.00 0.00 0.00 20 1010.0
20260830232809 101 134 4.3 7.8 0.00 0.00 0.00 20 1009.9
20260830232306 102 162 2.6 5.2 0.00 0.00 0.00 20 1009.9
20260830231800 102 184 3.5 3.5 0.00 0.00 0.00 20 1010.1
20260830231255 102 216 0.0 9.6 0.00 0.00 0.00 20 1010.0
20260830230749 102 127 5.2 5.2 0.00 0.00 0.00 19 1010.2
20260830230245 102 101 2.6 5.2 0.00 0.00 0.00 19 1010.0
20260830225744 101 77 0.0 7.0 0.00 0.00 0.00 21 1010.2
20260830225239 102 165 2.6 6.1 0.00 0.00 0.00 20 1009.9
20260830224738 102 148 5.2 6.1 0.00 0.00 0.00 20 1010.1
20260830224234 102 159 5.2 11.3 0.00 0.00 0.00 20 1010.0
20260830223730 103 102 2.6 6.1 0.00 0.00 0.00 20 1009.9
20260830223226 102 111 3.5 9.6 0.00 0.00 0.00 21 1010.1
20260830222720 103 158 2.6 4.3 0.00 0.00 0.00 21 1010.2
20260830222216 103 104 4.3 6.1 0.00 0.00 0.00 20 1010.2
20260830221711 102 190 2.6 3.5 0.00 0.00 0.00 21 1010.1
20260830221208 102 71 1.7 6.1 0.00 0.00 0.00 22 1010.2
20260830220703 102 262 2.6 6.1 0.00 0.00 0.00 22 1010.4
20260830220202 103 119 7.8 9.6 0.00 0.00 0.00 21 1010.7
20260830215701 103 102 1.7 2.6 0.00 0.00 0.00 22 1010.1
20260830215155 101 154 2.6 6.1 0.00 0.00 0.00 22 1010.4
20260830214651 101 187 0.9 7.8 0.00 0.00 0.00 23 1010.6
20260830214145 102 74 0.9 5.2 0.00 0.00 0.00 23 1010.7
20260830213644 102 153 6.1 8.7 0.00 0.00 0.00 23 1010.7
20260830213140 102 125 2.6 6.1 0.00 0.00 0.00 23 1011.1
20260830212636 102 178 3.5 6.1 0.00 0.00 0.00 23 1010.9
20260830212131 101 180 4.3 6.1 0.00 0.00 0.00 24 1010.8
20260830211626 102 77 0.0 7.8 0.00 0.00 0.00 23 1011.0
20260830211125 101 172 6.1 13.0 0.00 0.00 0.00 24 1011.2
20260830210621 102 177 2.6 7.8 0.00 0.00 0.00 24 1011.3
20260830210120 103 74 0.9 11.3 0.00 0.00 0.00 23 1011.3
20260830205617 101 151 6.1 12.2 0.00 0.00 0.00 24 1011.0
20260830205113 101 126 1.7 4.3 0.00 0.00 0.00 24 1011.2
20260830204612 101 285 0.9 4.3 0.00 0.00 0.00 24 1011.4
20260830204111 101 167 5.2 7.8 0.00 0.00 0.00 25 1011.6
20260830203608 101 145 3.5 6.1 0.00 0.00 0.00 24 1011.8
20260830203107 101 128 2.6 5.2 0.00 0.00 0.00 25 1011.6
20260830202602 100 166 2.6 7.8 0.00 0.00 0.00 26 1011.8
20260830202057 100 182 3.5 3.5 0.00 0.00 0.00 26 1011.9
20260830201557 99 169 1.7 4.3 0.00 0.00 0.00 26 1012.0
20260830201052 99 191 2.6 6.1 0.00 0.00 0.00 27 1012.2
20260830200548 100 165 8.7 9.6 0.00 0.00 0.00 27 1012.2
20260830200046 99 117 4.3 10.4 0.00 0.00 0.00 27 1012.1
20260830195542 100 180 1.7 10.4 0.00 0.00 0.00 27 1012.2
20260830195040 99 163 3.5 7.8 0.00 0.00 0.00 27 1012.6
20260830194539 98 210 1.7 3.5 0.00 0.00 0.00 27 1012.6
20260830194039 98 177 2.6 6.1 0.00 0.00 0.00 27 1012.6
20260830193538 98 164 6.1 11.3 0.00 0.00 0.00 28 1012.6
20260830193034 98 82 2.6 6.1 0.00 0.00 0.00 28 1012.7
20260830192530 97 216 0.0 6.1 0.00 0.00 0.00 29 1012.6
20260830192029 98 181 4.3 7.8 0.00 0.00 0.00 29 1012.9
20260830191525 98 157 3.5 9.6 0.00 0.00 0.00 29 1013.0
20260830191020 97 178 2.6 6.1 0.00 0.00 0.00 30 1013.0
20260830190515 97 192 4.3 10.4 0.00 0.00 0.00 30 1013.0
20260830190010 97 341 0.0 6.1 0.00 0.00 0.00 30 1012.9
20260830185504 96 57 0.0 2.6 0.00 0.00 0.00 30 1013.3
20260830185000 96 166 0.0 6.1 0.00 0.00 0.00 30 1013.1
20260830184459 96 160 3.5 6.1 0.00 0.00 0.00 30 1013.2
20260830183953 97 196 4.3 6.1 0.00 0.00 0.00 30 1013.3
20260830183448 97 240 0.0 1.7 0.00 0.00 0.00 31 1013.3
20260830182943 96 15 0.9 5.2 0.00 0.00 0.00 31 1013.6
20260830182438 96 182 3.5 7.0 0.00 0.00 0.00 31 1013.4
20260830181929 96 243 2.6 4.3 0.00 0.00 0.00 31 1013.6
20260830181424 95 218 2.6 7.0 0.00 0.00 0.00 32 1013.5
20260830180919 96 90 6.1 6.1 0.00 0.00 0.00 32 1013.7
20260830180418 94 139 2.6 7.8 0.00 0.00 0.00 33 1013.8
20260830175917 95 157 2.6 4.3 0.00 0.00 0.00 32 1013.9
20260830175412 95 114 0.0 5.2 0.00 0.00 0.00 33 1013.8
20260830174907 94 157 3.5 6.1 0.00 0.00 0.00 34 1013.9
20260830174402 94 150 2.6 4.3 0.00 0.00 0.00 34 1013.8
20260830173857 93 220 4.3 5.2 0.00 0.00 0.00 34 1014.3
20260830173353 93 105 1.7 6.1 0.00 0.00 0.00 34 1014.4
20260830172849 92 148 1.7 7.0 0.00 0.00 0.00 35 1014.4
20260830172345 93 178 3.5 6.1 0.00 0.00 0.00 35 1014.4
20260830171840 93 109 3.5 5.2 0.00 0.00 0.00 35 1014.4
20260830171336 91 135 1.7 5.2 0.00 0.00 0.00 37 1014.4
20260830170831 91 107 1.7 9.6 0.00 0.00 0.00 37 1014.7
20260830170330 93 180 6.1 7.0 0.00 0.00 0.00 37 1014.5
20260830165828 92 203 2.6 5.2 0.00 0.00 0.00 37 1014.6
20260830165325 91 169 1.7 4.3 0.00 0.00 0.00 37 1014.7
20260830164821 90 166 5.2 7.0 0.00 0.00 0.00 40 1014.7
20260830164316 89 200 0.0 7.8 0.00 0.00 0.00 41 1015.0
20260830163814 88 166 6.1 7.0 0.00 0.00 0.00 42 1014.9
20260830163308 89 164 1.7 5.2 0.00 0.00 0.00 41 1014.7
20260830162803 89 154 3.5 6.1 0.00 0.00 0.00 42 1014.9
20260830162300 88 214 1.7 7.0 0.00 0.00 0.00 43 1015.0
20260830161755 87 166 2.6 7.0 0.00 0.00 0.00 44 1014.9
20260830161254 87 166 0.0 4.3 0.00 0.00 0.00 44 1015.0
20260830160749 86 200 3.5 9.6 0.00 0.00 0.00 45 1014.9
20260830160249 86 161 2.6 9.6 0.00 0.00 0.00 46 1014.8
20260830155745 86 151 2.6 9.6 0.00 0.00 0.00 46 1015.0
20260830155241 85 174 2.6 8.7 0.00 0.00 0.00 46 1015.1
20260830154736 86 195 3.5 5.2 0.00 0.00 0.00 46 1014.9
20260830154232 84 185 5.2 7.8 0.00 0.00 0.00 47 1015.0
20260830153728 84 162 3.5 9.6 0.00 0.00 0.00 49 1015.1
20260830153223 84 119 0.0 5.2 0.00 0.00 0.00 48 1015.1
20260830152721 84 187 4.3 7.8 0.00 0.00 0.00 49 1015.3
20260830152216 83 170 4.3 7.0 0.00 0.00 0.00 49 1015.5
20260830151711 83 178 3.5 6.1 0.00 0.00 0.00 50 1015.3
20260830151210 83 169 6.1 7.8 0.00 0.00 0.00 50 1015.1
20260830150705 82 142 2.6 7.8 0.00 0.00 0.00 51 1015.5
20260830150205 82 157 4.3 5.2 0.00 0.00 0.00 51 1015.0
20260830145700 82 166 2.6 7.0 0.00 0.00 0.00 51 1015.1
20260830145155 81 188 3.5 6.1 0.00 0.00 0.00 52 1015.4
20260830144650 81 197 2.6 6.1 0.00 0.00 0.00 52 1015.5
20260830144146 81 180 4.3 7.8 0.00 0.00 0.00 52 1015.3
20260830143642 81 143 2.6 7.0 0.00 0.00 0.00 53 1015.5
20260830143140 80 186 0.0 7.8 0.00 0.00 0.00 53 1015.3
20260830142636 80 188 4.3 7.8 0.00 0.00 0.00 54 1015.3
20260830142136 80 177 2.6 6.1 0.00 0.00 0.00 54 1015.4
20260830141631 80 180 1.7 3.5 0.00 0.00 0.00 54 1015.3
20260830141126 80 183 2.6 4.3 0.00 0.00 0.00 55 1015.1
20260830140621 79 194 2.6 5.2 0.00 0.00 0.00 55 1015.4
20260830140116 79 186 2.6 5.2 0.00 0.00 0.00 55 1015.4
20260830135615 79 162 3.5 3.5 0.00 0.00 0.00 55 1015.5
20260830135111 79 168 1.7 3.5 0.00 0.00 0.00 55 1015.6
20260830134607 79 198 0.9 3.5 0.00 0.00 0.00 55 1015.4
20260830134102 78 151 0.0 2.6 0.00 0.00 0.00 56 1015.6
20260830133557 78 121 2.6 2.6 0.00 0.00 0.00 56 1015.4
20260830133052 78 75 0.0 0.9 0.00 0.00 0.00 56 1015.3
20260830132548 78 90 0.0 0.0 0.00 0.00 0.00 56 1015.4
20260830132043 77 90 0.0 0.0 0.00 0.00 0.00 58 1015.0
20260830131542 77 90 0.0 0.0 0.00 0.00 0.00 59 1015.0
20260830131037 74 90 0.0 0.9 0.00 0.00 0.00 63 1015.0
20260830130532 72 23 0.9 1.7 0.00 0.00 0.00 65 1014.9
20260830130027 71 7 0.0 1.7 0.00 0.00 0.00 64 1015.0
20260830125521 71 82 0.0 1.7 0.00 0.00 0.00 65 1015.0
20260830125015 71 6 0.0 1.7 0.00 0.00 0.00 64 1014.7
20260830124509 73 114 0.0 1.7 0.00 0.00 0.00 63 1015.0
20260830124005 73 264 0.0 0.0 0.00 0.00 0.00 64 1014.8
20260830123502 73 264 0.0 0.0 0.00 0.00 0.00 64 1014.7
20260830123001 73 264 0.0 0.0 0.00 0.00 0.00 63 1014.6
20260830122459 73 243 0.0 1.7 0.00 0.00 0.00 64 1014.3
20260830121954 73 195 0.9 0.9 0.00 0.00 0.00 64 1014.6
20260830121450 73 229 0.0 0.0 0.00 0.00 0.00 63 1014.5
20260830120949 74 229 0.0 0.0 0.00 0.00 0.00 63 1014.5
20260830120444 74 194 0.0 1.7 0.00 0.00 0.00 62 1014.5
20260830115941 74 176 1.7 3.5 0.00 0.00 0.00 62 1014.1
20260830115437 74 188 0.0 3.5 0.00 0.00 0.00 62 1013.9
20260830114932 75 147 1.7 1.7 0.00 0.00 0.00 61 1014.1
20260830114429 75 175 0.9 2.6 0.00 0.00 0.00 61 1014.1
20260830113928 75 171 2.6 3.5 0.00 0.00 0.00 60 1013.9
20260830113424 75 172 0.0 2.6 0.00 0.00 0.00 60 1014.1
20260830112919 75 161 1.7 2.6 0.00 0.00 0.00 60 1014.3
20260830112415 76 166 2.6 3.5 0.00 0.00 0.00 60 1013.7
20260830111911 75 120 0.9 3.5 0.00 0.00 0.00 59 1013.9
20260830111406 76 162 3.5 4.3 0.00 0.00 0.00 59 1013.9
20260830110901 76 180 1.7 5.2 0.00 0.00 0.00 59 1014.1
20260830110357 76 185 1.7 4.3 0.00 0.00 0.00 59 1013.8
20260830105856 76 185 2.6 4.3 0.00 0.00 0.00 58 1013.9
20260830105353 76 150 2.6 4.3 0.00 0.00 0.00 58 1013.8
20260830104849 76 186 3.5 3.5 0.00 0.00 0.00 57 1013.7
20260830104346 76 159 2.6 3.5 0.00 0.00 0.00 57 1013.9
20260830103844 76 166 2.6 2.6 0.00 0.00 0.00 57 1013.7
20260830103341 76 165 0.9 3.5 0.00 0.00 0.00 57 1013.9
20260830102838 76 158 3.5 5.2 0.00 0.00 0.00 57 1013.7
20260830102334 76 158 1.7 4.3 0.00 0.00 0.00 57 1013.9
20260830101830 76 166 2.6 3.5 0.00 0.00 0.00 57 1014.2
20260830101325 76 180 2.6 3.5 0.00 0.00 0.00 57 1014.2
20260830100825 76 187 0.9 4.3 0.00 0.00 0.00 57 1013.9
20260830100319 76 172 0.0 4.3 0.00 0.00 0.00 56 1014.1
20260830095818 76 141 2.6 3.5 0.00 0.00 0.00 56 1013.8
20260830095314 76 172 3.5 4.3 0.00 0.00 0.00 56 1013.9
20260830094810 76 161 2.6 4.3 0.00 0.00 0.00 56 1013.7
20260830094306 76 170 2.6 3.5 0.00 0.00 0.00 55 1013.9
20260830093801 76 152 2.6 2.6 0.00 0.00 0.00 55 1013.9
20260830093257 76 140 1.7 3.5 0.00 0.00 0.00 55 1014.2
20260830092756 76 180 3.5 5.2 0.00 0.00 0.00 55 1013.8
20260830092253 76 139 0.0 3.5 0.00 0.00 0.00 54 1013.9
20260830091749 76 180 1.7 4.3 0.00 0.00 0.00 54 1013.8
20260830091249 77 192 1.7 4.3 0.00 0.00 0.00 53 1013.9
20260830090748 77 180 0.9 4.3 0.00 0.00 0.00 53 1013.8
20260830090244 77 155 2.6 5.2 0.00 0.00 0.00 53 1013.7
20260830085743 77 177 2.6 4.3 0.00 0.00 0.00 53 1013.7
20260830085239 77 169 2.6 4.3 0.00 0.00 0.00 53 1013.6
20260830084734 77 189 1.7 3.5 0.00 0.00 0.00 52 1013.8
20260830084229 77 180 1.7 4.3 0.00 0.00 0.00 52 1013.5
20260830083724 78 163 3.5 3.5 0.00 0.00 0.00 51 1013.7
20260830083220 78 174 3.5 4.3 0.00 0.00 0.00 51 1013.7
20260830082719 78 164 2.6 5.2 0.00 0.00 0.00 50 1013.8
20260830082215 78 180 4.3 4.3 0.00 0.00 0.00 50 1013.8
20260830081710 78 168 3.5 4.3 0.00 0.00 0.00 50 1013.8
20260830081210 78 160 2.6 5.2 0.00 0.00 0.00 49 1014.1
20260830080704 78 186 2.6 3.5 0.00 0.00 0.00 49 1013.9
20260830080201 78 195 2.6 4.3 0.00 0.00 0.00 49 1013.8
20260830075659 78 220 2.6 3.5 0.00 0.00 0.00 48 1013.8
20260830075155 78 177 1.7 4.3 0.00 0.00 0.00 48 1013.9
20260830074651 78 180 2.6 4.3 0.00 0.00 0.00 47 1013.9
20260830074146 79 160 2.6 4.3 0.00 0.00 0.00 47 1013.8
20260830073642 79 185 2.6 3.5 0.00 0.00 0.00 47 1013.9
20260830073137 80 168 1.7 4.3 0.00 0.00 0.00 46 1013.8
20260830072632 80 158 2.6 4.3 0.00 0.00 0.00 46 1013.9
20260830072132 80 199 1.7 4.3 0.00 0.00 0.00 45 1013.9
20260830071628 80 173 2.6 2.6 0.00 0.00 0.00 45 1014.1
20260830071126 80 180 2.6 3.5 0.00 0.00 0.00 44 1014.1
20260830070621 81 195 1.7 3.5 0.00 0.00 0.00 44 1014.2
20260830070116 80 183 2.6 4.3 0.00 0.00 0.00 44 1014.2
20260830065615 81 182 2.6 5.2 0.00 0.00 0.00 43 1013.9
20260830065114 81 180 2.6 5.2 0.00 0.00 0.00 43 1014.1
20260830064608 81 187 3.5 4.3 0.00 0.00 0.00 43 1013.9
20260830064103 81 180 3.5 6.1 0.00 0.00 0.00 43 1014.1
20260830063557 81 165 3.5 5.2 0.00 0.00 0.00 43 1013.9
20260830063057 81 183 4.3 5.2 0.00 0.00 0.00 42 1013.9
20260830062556 82 185 1.7 6.1 0.00 0.00 0.00 41 1014.2
20260830062051 82 179 4.3 6.1 0.00 0.00 0.00 41 1014.1
20260830061546 82 168 4.3 7.0 0.00 0.00 0.00 41 1014.1
20260830061042 82 171 3.5 6.1 0.00 0.00 0.00 40 1014.3
20260830060538 82 215 3.5 4.3 0.00 0.00 0.00 40 1013.9
20260830060035 82 157 1.7 2.6 0.00 0.00 0.00 40 1013.9
20260830055530 82 203 0.9 3.5 0.00 0.00 0.00 40 1014.2
20260830055026 82 172 1.7 2.6 0.00 0.00 0.00 40 1014.2
20260830054521 82 188 0.9 2.6 0.00 0.00 0.00 39 1014.3
20260830054016 82 174 2.6 2.6 0.00 0.00 0.00 39 1014.1
20260830053512 82 180 2.6 3.5 0.00 0.00 0.00 39 1014.2
20260830053011 83 188 1.7 3.5 0.00 0.00 0.00 39 1014.3
20260830052507 83 183 1.7 4.3 0.00 0.00 0.00 39 1014.2
20260830052006 83 195 2.6 7.0 0.00 0.00 0.00 38 1014.2
20260830051501 83 192 3.5 5.2 0.00 0.00 0.00 38 1013.9
20260830050956 83 180 2.6 6.1 0.00 0.00 0.00 38 1014.4
20260830050451 83 166 1.7 4.3 0.00 0.00 0.00 38 1013.9
20260830045949 84 176 3.5 6.1 0.00 0.00 0.00 38 1013.9
20260830045445 84 194 4.3 5.2 0.00 0.00 0.00 38 1014.2
20260830044944 84 171 3.5 4.3 0.00 0.00 0.00 37 1013.9
20260830044439 84 180 2.6 5.2 0.00 0.00 0.00 37 1013.8
20260830043934 85 180 1.7 6.1 0.00 0.00 0.00 37 1013.9
20260830043429 85 182 3.5 6.1 0.00 0.00 0.00 36 1014.1
20260830042927 85 161 2.6 5.2 0.00 0.00 0.00 36 1013.8
20260830042421 85 174 3.5 4.3 0.00 0.00 0.00 36 1013.9
20260830041920 85 188 2.6 6.1 0.00 0.00 0.00 35 1013.8
20260830041419 86 180 3.5 4.3 0.00 0.00 0.00 35 1013.8